Weather History for Nome, AK

Change the Weather History Date:

Monday, June 25, 2012

  Actual Average Record
Temperature  
Mean Temperature 47 °F 51 °F  
Max Temperature 52 °F 58 °F 80 °F (1982)
Min Temperature 41 °F 44 °F 31 °F (1918)
Degree Days  
Heating Degree Days 18 14  
Month to date heating degree days 422 446  
Since 1 June heating degree days 422 446  
Since 1 July heating degree days 15129 13634  
Cooling Degree Days 0    
Month to date cooling degree days 0  
Year to date cooling degree days 0  
Since 1 June cooling degree days 0  
Moisture  
Dew Point 45 °F    
Average Humidity 0    
Maximum Humidity 0    
Minimum Humidity 0    
Precipitation  
Precipitation 0.01 in 0.04 in 0.51 in (1979)
Month to date precipitation 0.28 0.78  
Year to date precipitation 3.06 4.92  
Snow  
Snow 0.00 in 0.00 in T in (1979)
Month to date snowfall 0.0 0.3  
Since 1 June snowfall 0.0 0.3  
Since 1 July snowfall 80.6 75.7  
Snow Depth 0.00 in    
Sea Level Pressure  
Sea Level Pressure 29.44 in    
Wind  
Wind Speed 11 mph (ESE)    
Max Wind Speed 23 mph    
Max Gust Speed 28 mph    
Visibility 7 miles    
Events Rain    
T = Trace of Precipitation, MM = Missing Value Source: NWS Daily Summary

Daily Weather History Graph

Daily Weather History Graph

Search for Another Location

Airport:

Trip Planner

Search our weather history database for the weather conditions in past years. The results will help you decide how hot, cold, wet, or windy it might be!

Date:

Astronomy

Jun. 25, 2012 Rise Set
Actual Time 4:22 AM AKDT 1:46 AM AKDT
Civil Twilight Sun does not rise Sun does not rise
Nautical Twilight Sun does not rise Sun does not rise
Astronomical Twilight Sun does not rise Sun does not rise
Moon 2:01 PM AKDT (6/25) 1:49 AM AKDT (6/25)
Length of Visible Light 24h 00m
Length of Day
21h 23m
Waxing Crescent, 36% of the Moon is Illuminated
Jun 25
Waxing Crescent
Jun 26
First Quarter
Jul 3
Full
Jul 10
Last Quarter
Jul 18
New

Hourly Weather History & Observations

Time (AKDT) Temp. Windchill Dew Point Humidity Pressure Visibility Wind Dir Wind Speed Gust Speed Precip Events Conditions
12:12 AM 53.6 °F - 50.0 °F 88% 29.32 in 10.0 mi East 6.9 mph - N/A   Overcast
12:53 AM 52.0 °F - 50.0 °F 93% 29.33 in 10.0 mi East 6.9 mph - 0.00 in Rain Light Rain
1:53 AM 52.0 °F - 50.0 °F 93% 29.33 in 10.0 mi East 4.6 mph - 0.00 in Rain Light Rain
2:53 AM 52.0 °F - 50.0 °F 93% 29.33 in 10.0 mi Calm Calm - 0.01 in   Overcast
3:53 AM 52.0 °F - 48.9 °F 89% 29.33 in 10.0 mi East 8.1 mph - N/A   Mostly Cloudy
4:53 AM 50.0 °F - 48.0 °F 93% 29.33 in 10.0 mi East 6.9 mph - N/A   Mostly Cloudy
5:38 AM 48.2 °F - 48.2 °F 100% 29.33 in 10.0 mi East 9.2 mph - N/A   Overcast
5:53 AM 48.0 °F - 48.0 °F 100% 29.33 in 5.0 mi East 10.4 mph - N/A   Overcast
6:53 AM 44.1 °F 36.2 °F 43.0 °F 96% 29.34 in 10.0 mi ENE 18.4 mph - N/A   Overcast
7:34 AM 42.8 °F 36.2 °F 42.8 °F 100% 29.35 in 10.0 mi ENE 12.7 mph 25.3 mph N/A   Overcast
7:53 AM 43.0 °F 34.5 °F 42.1 °F 97% 29.36 in 10.0 mi ENE 19.6 mph 26.5 mph N/A   Overcast
8:53 AM 43.0 °F 34.5 °F 41.0 °F 93% 29.37 in 10.0 mi East 19.6 mph 25.3 mph N/A   Overcast
9:23 AM 42.8 °F 34.8 °F 41.0 °F 93% 29.37 in 2.5 mi East 17.3 mph - N/A   Overcast
9:38 AM 41.0 °F 32.8 °F 41.0 °F 100% 29.38 in 1.2 mi East 16.1 mph - 0.00 in Rain Light Rain
9:53 AM 41.0 °F 31.9 °F 41.0 °F 100% 29.40 in 1.2 mi East 19.6 mph 24.2 mph 0.00 in Rain Light Rain
10:53 AM 41.0 °F 33.1 °F 41.0 °F 100% 29.42 in 1.5 mi ESE 15.0 mph - 0.00 in Rain Light Rain
11:42 AM 42.8 °F 35.1 °F 41.0 °F 93% 29.43 in 2.0 mi ESE 16.1 mph - 0.00 in Rain Light Rain
11:53 AM 42.1 °F 34.5 °F 42.1 °F 100% 29.44 in 1.8 mi ESE 15.0 mph - 0.00 in Rain Light Rain
12:16 PM 42.8 °F 34.8 °F 42.8 °F 100% 29.44 in 2.5 mi ESE 17.3 mph - 0.00 in Rain Light Rain
12:33 PM 42.8 °F 35.1 °F 42.8 °F 100% 29.45 in 1.5 mi ESE 16.1 mph - 0.00 in Rain Light Rain
12:53 PM 44.1 °F 36.5 °F 43.0 °F 96% 29.46 in 1.5 mi ESE 17.3 mph - 0.00 in Rain Light Rain
1:36 PM 44.6 °F 37.8 °F 42.8 °F 93% 29.47 in 2.5 mi ESE 15.0 mph - 0.00 in   Light Drizzle
1:53 PM 45.0 °F 38.2 °F 44.1 °F 97% 29.48 in 2.0 mi ESE 15.0 mph - 0.00 in   Light Drizzle
2:07 PM 44.6 °F 37.8 °F 42.8 °F 93% 29.48 in 1.8 mi ESE 15.0 mph - 0.00 in   Light Drizzle
2:48 PM 44.6 °F 39.2 °F 44.6 °F 100% 29.48 in 3.0 mi SE 10.4 mph - 0.00 in   Overcast
2:53 PM 45.0 °F 39.3 °F 44.1 °F 97% 29.48 in 6.0 mi SE 11.5 mph - 0.00 in   Overcast
3:38 PM 46.4 °F 41.5 °F 46.4 °F 100% 29.49 in 10.0 mi SE 10.4 mph - N/A   Overcast
3:53 PM 46.9 °F - 45.0 °F 93% 29.49 in 10.0 mi ESE 16.1 mph - N/A   Overcast
4:16 PM 48.2 °F - 46.4 °F 93% 29.49 in 10.0 mi SE 15.0 mph - N/A   Overcast
4:24 PM 48.2 °F - 44.6 °F 87% 29.49 in 10.0 mi SE 18.4 mph - N/A   Overcast
4:53 PM 48.9 °F - 45.0 °F 86% 29.50 in 10.0 mi SE 16.1 mph - N/A   Overcast
5:53 PM 48.0 °F - 45.0 °F 89% 29.51 in 10.0 mi ESE 16.1 mph - N/A   Overcast
6:53 PM 48.9 °F - 45.0 °F 86% 29.52 in 10.0 mi SE 12.7 mph - N/A   Overcast
7:53 PM 48.9 °F - 45.0 °F 86% 29.52 in 10.0 mi SE 11.5 mph - N/A   Overcast
8:53 PM 48.9 °F - 44.1 °F 83% 29.53 in 10.0 mi SE 11.5 mph - N/A   Overcast
9:53 PM 48.9 °F - 44.1 °F 83% 29.54 in 10.0 mi SE 6.9 mph - N/A   Overcast
10:04 PM 48.2 °F - 44.6 °F 87% 29.54 in 10.0 mi SE 6.9 mph - N/A   Overcast
10:21 PM 48.2 °F - 44.6 °F 87% 29.54 in 10.0 mi SE 5.8 mph - N/A   Overcast
10:37 PM 48.2 °F - 44.6 °F 87% 29.54 in 10.0 mi SE 6.9 mph - N/A   Overcast
10:53 PM 48.9 °F - 45.0 °F 86% 29.55 in 10.0 mi SE 6.9 mph - N/A   Overcast
11:46 PM 48.2 °F - 44.6 °F 87% 29.55 in 10.0 mi ESE 5.8 mph - N/A   Overcast
11:53 PM 48.0 °F - 45.0 °F 89% 29.55 in 10.0 mi ESE 4.6 mph - N/A   Overcast